Location: Chamberlain Observatory
(39.0028°N, 90.1630°W)
Time: 01:44:46
(UTC-05:00)

Daily predictions for brighter satellites

Satellite Brightness Start Highest point End
(mag) Time Altitude Azimuth Time Altitude Azimuth Time Altitude Azimuth
Cosmos 2322 Rocket 4.0 00:15:26 27° NNW 00:15:26 27° NNW 00:18:30 10° N
Cosmos 2263 Rocket 4.1 00:10:32 10° NNW 00:12:49 25° NNW 00:12:49 25° NNW
ATLAS CENTAUR R/B 4.3 00:31:55 81° E 00:31:55 81° E 00:54:26 10° NE
Cosmos 2278 Rocket 4.3 00:50:36 10° N 00:53:14 21° NNE 00:53:14 21° NNE
CZ-3A R/B 4.0 00:59:23 10° SW 01:26:06 61° NE 01:30:00 10° NE
Cosmos 2360 Rocket 4.4 01:29:54 20° NNW 01:29:54 20° NNW 01:32:27 10° N
Cosmos 2219 Rocket 4.0 01:53:37 27° N 01:53:37 27° N 01:56:07 10° NNE
Cosmos 2333 Rocket 3.9 01:57:45 30° NNE 01:57:45 30° NNE 02:00:33 10° NNE
SL-16 R/B 4.1 02:00:03 24° NE 02:00:03 24° NE 02:02:29 10° NE
Cosmos 2237 Rocket 3.8 02:06:52 30° NNE 02:06:52 30° NNE 02:09:43 10° NNE
BREEZE-M DEB (TANK) 4.5 02:20:28 61° E 02:20:28 61° E 02:24:42 10° ENE
ATLAS 3B R/B 3.2 02:26:18 61° NNW 02:26:18 61° NNW 02:32:43 10° NNE
Resurs 1-4 Rocket 4.4 02:29:36 10° ENE 02:32:24 15° E 02:32:24 15° E
CZ-4C R/B 3.4 02:41:23 36° ENE 02:41:23 36° ENE 02:45:01 10° NE
Cosmos 2278 Rocket 4.5 02:34:09 10° NW 02:35:03 15° NW 02:35:03 15° NW
ARIANE 5 R/B 4.3 02:42:15 10° NE 02:45:54 25° E 02:45:54 25° E
COSMOS 2455 4.2 02:50:28 31° NNW 02:50:28 31° NNW 02:54:41 10° NNE
SL-16 R/B 3.5 03:03:00 30° ESE 03:05:22 42° ENE 03:11:08 10° N
BREEZE-M DEB (TANK) 4.4 02:57:50 10° WNW 03:07:29 47° NNE 03:07:29 47° NNE
USA 238 DEB 3.8 03:11:20 68° NW 03:11:20 68° NW 03:18:15 10° NNE
USA 238 3.8 03:11:27 68° NW 03:11:27 68° NW 03:18:22 10° NNE
USA 234 3.1 03:08:01 10° NE 03:14:35 87° NW 03:14:35 87° NW
S3M 4.0 03:15:52 77° ENE 03:15:52 77° ENE 03:21:54 10° N
Cosmos 2369 Rocket 4.0 03:20:40 10° N 03:25:32 29° ENE 03:30:23 10° ESE
Cosmos 1726 4.3 03:29:41 25° NNE 03:29:41 25° NNE 03:31:28 10° NNE
CZ-2D R/B 2.7 03:23:02 10° NNE 03:28:10 49° E 03:28:18 49° ESE
NOSS 3-2 (A) 3.4 03:28:40 72° SE 03:28:45 72° ESE 03:35:17 10° NE
Cosmos 1271 Rocket 4.4 03:36:55 32° NNE 03:36:55 32° NNE 03:39:10 10° N
Cosmos 1553 Rocket 3.9 03:37:19 71° WNW 03:37:19 71° WNW 03:43:17 10° N
Cosmos 1869 Rocket 4.5 03:33:34 10° N 03:36:55 47° NNE 03:36:55 47° NNE
Cosmos 2333 Rocket 4.4 03:39:45 12° NW 03:40:02 12° NW 03:42:21 10° NNW
SL-16 R/B 3.5 03:41:56 27° NW 03:41:56 27° NW 03:46:15 10° N
Cosmos 1745 Rocket 3.9 03:35:41 10° N 03:42:04 82° W 03:42:42 72° SSW
NOSS 3-2 (C) 3.4 03:42:57 67° SSE 03:43:39 74° ESE 03:50:13 10° NE
Meteor 1-27 4.1 03:47:53 69° SSE 03:48:29 78° E 03:54:03 10° NNE
Cosmos 2237 Rocket 4.4 03:48:42 12° NW 03:49:04 12° NW 03:51:07 10° NNW
CENTAUR R/B 4.4 03:50:51 13° SSE 03:54:30 21° ESE 03:59:13 10° ENE
Cosmos 1943 Rocket 4.4 03:55:23 10° N 03:59:58 25° NE 04:04:31 10° ESE
EO 1 Del DPAF 3.6 04:06:18 61° N 04:06:18 61° N 04:09:36 10° N
ADEOS 4.4 04:01:24 10° N 04:05:46 35° WNW 04:05:46 35° WNW
UNKNOWN OBJECT B 3.1 04:03:30 10° NNE 04:06:33 58° NNE 04:06:33 58° NNE
Cosmos 1356 Rocket 4.1 04:04:37 10° NNW 04:07:25 42° NNW 04:07:25 42° NNW
Cosmos 494 Rocket 4.0 04:08:30 56° S 04:09:36 81° ESE 04:14:54 10° NNE
IRS-1D 3.7 04:05:04 10° N 04:10:07 54° WNW 04:10:24 53° W
ARGOS Delta rocket 4.3 04:06:33 10° NNE 04:10:52 50° E 04:12:24 34° SSE
ERS-2 4.1 04:09:00 10° N 04:10:40 21° NNW 04:10:40 21° NNW
ATLAS CENTAUR R/B 2.5 04:08:33 10° NNW 04:12:43 44° NE 04:16:31 10° SE
Resurs 1-4 Rocket 2.1 04:07:37 10° N 04:12:49 62° WNW 04:13:28 56° WSW
Cosmos 1707 Rocket 4.1 04:19:11 42° WNW 04:19:11 42° WNW 04:22:58 10° N
Cosmos 1733 Rocket 4.0 04:15:03 10° N 04:19:16 47° E 04:23:30 10° SSE
ARIANE 5 R/B 3.2 04:21:01 10° N 04:25:46 36° WNW 04:26:14 35° W
Meteor 2-3 Rocket 3.8 04:21:09 10° NNW 04:26:47 58° W 04:29:01 35° SSW
BREEZE-M DEB (TANK) 4.2 04:23:45 12° NW 04:27:10 59° NNE 04:35:35 10° ESE
CZ-4C R/B 3.6 04:26:34 21° WNW 04:28:18 24° NW 04:33:09 10° NNE
Iridium 2 3.5 04:25:18 10° N 04:29:06 74° W 04:29:14 73° WSW
ATLAS 5 CENTAUR R/B 2.3 04:27:25 32° S 04:29:24 55° ESE 04:34:24 10° NE
Cosmos 2315 Rocket 3.9 04:27:27 30° SSW 04:30:40 76° W 04:36:57 10° N
ADEOS II 4.2 04:28:17 10° NE 04:32:33 25° E 04:36:46 10° SSE
Cosmos 1331 Rocket 3.9 04:28:14 10° NNW 04:33:26 62° WSW 04:38:03 13° S
Okean O Rocket 1.7 04:29:09 10° NNE 04:33:38 76° ESE 04:35:51 29° S
In-Cosmos 22 Rocket 4.5 04:29:12 10° NNW 04:34:05 39° W 04:34:33 38° WSW
Cosmos 1892 2.6 04:33:35 10° NNW 04:37:24 64° W 04:37:56 56° SW
PSLV R/B 3.2 04:39:06 65° WNW 04:39:29 75° N 04:42:53 10° ENE
CZ-2C R/B 3.7 04:35:07 10° SSE 04:39:35 81° ENE 04:44:02 10° N
MOZ.5/SAFIR/RUBIN 5/SL-8 3.6 04:39:47 10° SSE 04:44:25 85° WSW 04:49:05 10° NNW
BREEZE-M DEB (TANK) 4.0 04:45:35 13° NNW 04:47:13 25° NNE 04:49:21 10° E
Cosmos 1184 Rocket 3.2 04:43:52 10° N 04:47:17 68° E 04:50:41 10° SSE
Thor Agena Rocket 4.0 04:42:39 10° SSE 04:47:40 62° ENE 04:52:47 10° N
Sich 1 Rocket 4.3 04:44:04 10° N 04:48:23 54° E 04:52:40 10° SSE
SL-16 R/B 3.3 04:48:06 28° WSW 04:49:04 29° W 04:54:21 10° NW
IRS-1C Rocket 4.0 04:44:30 10° N 04:49:47 73° WNW 04:53:19 21° SSW
PSLV R/B 3.7 04:46:40 10° N 04:50:22 62° WNW 04:51:40 37° SW
OAO 3 Copernicus 4.5 04:52:38 31° WSW 04:54:49 54° S 04:59:45 10° ESE
SeaSat 1 2.6 04:51:02 10° S 04:55:44 46° WSW 05:00:30 10° NW
Cosmos 1943 3.8 04:54:02 27° WSW 04:56:30 40° WNW 05:01:49 10° N
USA 234 4.5 04:51:29 10° NNE 04:57:03 31° NNW 05:01:55 13° W
Pageos (A) 3.4 04:55:11 10° N 04:57:19 60° E 04:58:25 24° SSE
CZ-4B DEB 4.1 04:56:12 10° NNE 05:01:42 83° WNW 05:07:09 10° SSW
CZ-2D R/B 3.5 05:04:05 10° NNW 05:07:51 20° WNW 05:09:38 17° W
CZ-4B R/B 3.1 05:03:42 10° N 05:08:58 65° WNW 05:13:52 12° SSW
Cosmos 2369 Rocket 2.6 05:04:28 10° NW 05:09:36 38° WSW 05:14:43 10° S
Cosmos 1455 3.1 05:08:34 25° WSW 05:09:45 30° WNW 05:13:14 10° NNW
SL-27 R/B 2.7 05:06:48 13° S 05:09:59 72° ESE 05:13:38 10° NNE
SL-08 ROCKET BODY 4.4 05:09:38 10° N 05:15:40 85° W 05:21:46 10° S
Meteor PRIRODA 4.3 05:18:14 10° NNE 05:21:58 59° E 05:25:40 10° S
CZ-4B R/B 3.3 05:20:49 10° N 05:24:10 36° WNW 05:26:53 14° SW
Cosmos 1862 Rocket 4.5 05:24:26 16° SW 05:27:12 29° WNW 05:31:02 10° NNW
Meteor 1-31 Rocket 4.1 05:23:42 10° NNE 05:27:19 40° E 05:30:54 10° S
Nadezhda 1 Rocket 4.0 05:21:08 10° S 05:27:21 79° W 05:33:42 10° N
PSLV R/B 3.5 05:24:21 10° N 05:28:43 76° WNW 05:33:06 10° SSW
Cosmos 1862 3.3 05:26:05 10° NNW 05:30:01 62° W 05:33:55 10° S
Okean 2 Rocket 3.7 05:26:25 10° N 05:30:53 62° E 05:35:20 10° SSE
USA 116 4.2 05:28:11 10° SSE 05:32:42 87° WSW 05:37:47 10° NNW
Feng Yun 1-1 Rocket 4.2 05:31:51 10° NNE 05:37:16 84° WNW 05:42:40 10° SSW
Cosmos 1933 3.8 05:35:50 10° SSW 05:39:44 41° W 05:43:38 10° N
MOS 1 Rocket 4.1 05:36:41 10° NNE 05:40:52 48° E 05:45:00 10° S
Cosmos 1943 Rocket 2.4 05:38:32 10° NW 05:43:57 48° WSW 05:49:19 10° S
CENTAUR R/B 2.7 05:38:23 10° SW 05:44:23 62° NW 05:51:12 10° NNE
Cosmos 389 Rocket 4.0 05:42:07 11° WSW 05:44:32 20° WNW 05:47:10 10° NNW
Meteor 1-26 Rocket 4.3 05:42:08 10° S 05:47:55 85° W 05:53:50 10° N
ADEOS Rocket 3.7 05:40:33 10° N 05:48:10 68° WNW 05:55:49 10° SSW
Cosmos 2154 Rocket 4.1 05:42:45 10° N 05:49:06 85° W 05:55:27 10° S
Cosmos 2074 Rocket 4.5 05:44:29 10° NNW 05:50:11 39° W 05:55:53 10° SSW
Cosmos 2184 Rocket 4.5 05:44:57 10° NNW 05:50:50 41° W 05:56:43 10° SSW
ATLAS CENTAUR R/B 2.9 05:48:55 10° WNW 05:51:18 15° WSW 05:53:33 10° SW
Okean 1-7 3.0 05:47:46 10° SSW 05:52:02 68° W 05:56:21 10° N
Cosmos 1825 2.9 05:48:37 10° NNW 05:52:03 33° W 05:55:28 10° SSW
Aureole 3 Rocket 4.2 05:45:41 10° SSW 05:53:27 61° W 05:59:01 10° N
Meteor 2-10 Rocket 4.4 05:51:18 10° S 05:57:01 62° E 06:02:42 10° NNE
